    Orbital elements:
    2017 NH                                             PHA, Earth MOID = 0.0411 AU
    Epoch 2020 May 31.0 TT = JDT 2459000.5                  Veres
    M 244.59421              (2000.0)            P               Q
    n   0.59893655     Peri.   71.79310     +0.94171926     +0.31829766
    a   1.3938483      Node   269.53462     -0.33483120     +0.85567381
    e   0.3297649      Incl.    6.25006     -0.03244844     +0.40805506
    P   1.65           H   21.5           G   0.15           U   1
    Residuals in seconds of arc
    170701 T08  0.1-  0.1-    170703 J69  0.3-  0.3+    170708 Z80  0.2-  0.0
    170701 T08  0.1+  0.2-    170703 J69  0.0   0.4+    170708 Z80  0.1-  0.2-
    170701 T08  0.2+  0.2-    170703 J69  0.0   0.3+    170708 Z80  0.1+  0.3+
    170702 H36  0.0   0.1+    170703 J69  0.1+  0.3+    170708 Z80  0.0   0.3+
    170702 H36  0.1+  0.2+    170704 I39  0.3-  0.0     170708 Z80  0.2-  0.1+
    170702 H36  0.0   0.1+    170704 I39  0.2+  0.1-    170708 Z80  0.4-  0.1+
    170702 I52  0.0   0.1-    170704 I39  0.5+  0.1-    170708 Z80  0.2+  0.0
    170702 I52  0.1+  0.0     170704 H21  0.2+  0.1-    170709 F51  0.2-  0.2+
    170702 I52  0.2+  0.0     170704 H21  0.2+  0.1-    170709 F51  0.2-  0.0
    170702 I52  0.1-  0.6-    170704 H21  0.1+  0.2-    170709 F51  0.2-  0.2+
    170702 691  0.0   0.2+    170704 H21  0.1+  0.1-    170709 G34  0.2+  0.1-
    170702 H21  0.0   0.1+    170704 H21  0.0   0.1-    170709 G34  0.2+  0.0
    170702 H21  0.1-  0.1+    170704 718  0.0   0.4+    170709 G34  0.1+  0.3-
    170702 H21  0.1+  0.1+    170704 718  0.1+  0.1+    170709 G34  0.2+  0.1-
    170702 H21  0.1+  0.1+    170704 718  0.1+  0.5-    170710 I15  0.0   0.3-
    170702 691  0.1-  0.2+    170704 718  0.6-  0.5-    170710 I15  0.2-  0.2-
    170702 H21  0.0   0.1+    170704 K38  0.1-  0.1-    170710 I15  0.0   0.1-
    170702 H21  0.0   0.0     170704 K38  0.1-  0.2-    170710 W34  0.0   0.1+
    170702 H21  0.3-  0.1+    170704 K38  0.1+  0.0     170710 W34  0.1+  0.2-
    170702 691  0.0   0.4+    170704 K38  0.1+  0.2-    170710 W34  0.0   0.1-
    170702 U69  0.2-  0.2+    170704 K38  0.2+  0.3-    170710 W34  0.3-  0.2-
    170702 U69  0.3-  0.2+    170705 K88  0.2+  0.0     170710 T08  0.2-  0.3-
    170702 E23  0.1-  0.0     170705 K88  0.0   0.0     170710 T08  0.1+  0.1-
    170702 E23  0.2-  0.0     170705 K88  0.1+  0.1-    170710 T08  0.0   0.3-
    170702 E23  0.1-  0.0     170705 K88  0.1+  0.1-    170710 160  0.1-  0.0
    170702 595  0.3-  0.4+    170705 K88  0.2+  0.0     170710 160  0.1-  0.3-
    170702 595  0.2-  0.6+    170705 K74  0.2+  0.0     170710 160  0.1-  0.2-
    170702 595  0.1+  0.1-    170705 K74  0.1-  0.3+    170710 160  0.0   0.1-
    170702 107  0.3+  0.0     170705 K74  0.2-  0.3-    170710 160  0.0   0.2-
    170702 107  0.1+  0.0     170705 C23  0.1-  0.3+    170710 160  0.1-  0.2-
    170702 107  0.4+  0.6+    170705 K74  0.0   0.1-    170710 160  0.0   0.1+
    170702 160  0.1+  0.1+    170705 C23  0.3+  0.1-    170710 160  0.0   0.2-
    170702 160  0.0   0.2+    170705 Z80  0.7-  0.2-    170710 160  0.1-  0.2-
    170702 203  0.1+  0.1-    170705 C23  0.1-  0.6+    170710 160  0.0   0.3-
    170702 160  0.1+  0.2+    170705 Z80  0.3-  0.3-    170711 160  0.0   0.2-
    170702 160  0.0   0.1+    170705 C23  0.0   0.5+    170711 160  0.0   0.0
    170702 160  0.1+  0.1+    170705 Z80  0.0   0.3-    170711 089  0.0   0.3+
    170702 203  0.0   0.0     170705 Z80  0.0   0.0     170711 089  0.2+  0.0
    170702 C77  0.2-  0.3+    170705 Z80  0.0   0.5-    170711 089  0.1+  0.0
    170702 C77  0.2+  0.1+    170705 Z80  0.0   0.1-    170711 089  0.2+  0.1-
    170702 C77  0.0   0.1+    170705 C23  0.3-  0.6-    170711 089  0.1+  0.1-
    170702 203  0.1-  0.1-    170705 C23  0.4-  0.1-    170711 089  0.1-  0.1-
    170702 B49  0.1-  0.1+    170705 C23  0.0   0.1+    170711 089  0.1-  0.2+
    170702 C77  0.1+  0.1-    170705 C23  0.2+  0.3-    170711 089  0.1+  0.2+
    170702 B49  0.6-  0.3+    170706 160  0.0   0.0     170711 089  0.1+  0.0
    170702 B49  1.3-  0.3+    170706 160  0.0   0.0     170711 089  0.1-  0.0
    170702 C23  0.4+  0.3+    170706 160  0.1+  0.0     170711 A53  0.1+  0.1+
    170702 C23  0.2-  0.2+    170706 Z80  0.4-  0.3+    170711 A53  0.3+  0.0
    170702 C23  0.5+  0.2-    170706 Z80  0.2-  0.1-    170711 A53  0.0   0.0
    170702 C23  0.2+  0.1-    170706 Z80  0.3-  0.1+    170711 A53  0.2+  0.0
    170702 C23  0.5+  0.0     170706 Z80  0.3-  0.0     170712 160  0.0   0.1-
    170702 C23  0.3-  0.7+    170706 Z80  0.1-  0.2+    170712 160  0.1-  0.1+
    170702 Z80  0.2-  0.3+    170707 H21  0.4+  0.6+    170712 160  0.1-  0.0
    170702 Z80  0.1-  0.2-    170707 H21  0.4+  0.3+    170712 C23  0.1-  1.0-
    170702 Z80  0.1+  0.2+    170707 H21  0.4+  0.3+    170712 C23  0.2+  0.7-
    170702 204  0.0   0.0     170707 H21  0.4+  0.3+    170712 C23  0.4+  3.0-
    170702 Z80  0.1+  0.8+    170707 H21  0.4+  0.3+    170712 203  0.0   0.1-
    170702 204  0.0   0.1+    170707 H21  0.3+  0.1+    170712 203  0.3-  0.3-
    170702 Z80  0.5+  0.3+    170707 H21  0.3+  0.3+    170713 A48  0.5-  0.2+
    170702 Z80  0.0   0.0     170707 H21  0.5+  0.2+    170713 A48  0.6-  0.1-
    170702 204  0.0   0.0     170707 H21  0.3+  0.2+    170713 A48  0.4-  0.2+
    170702 204  0.0   0.0     170707 H21  0.5+  0.4+    170713 A48  0.7-  0.2+
    170702 204  0.1-  0.0     170707 H21  0.5+  0.3+    170714 G58  0.3+  0.1+
    170702 J69  0.1+  0.3+    170707 H21  0.3+  0.2+    170714 G58  0.0   0.3+
    170702 J69  0.1+  0.3+    170707 H21  0.3+  0.3+    170714 G58  0.3-  0.3+
    170702 J69  0.4+  0.5+    170707 H21  0.3+  0.3+    170714 G58  0.4+  0.1+
    170702 J69  0.2-  1.1+    170707 H21  0.3+  0.2+    170714 G58  0.3-  0.1+
    170702 J69  0.2+  0.4+    170707 H21  0.2+  0.3+    170714 C23  0.3-  0.1-
    170703 807  0.1+  0.1-    170707 H21  0.2+  0.4-    170714 C23  0.1-  0.4+
    170703 807  0.0   0.1-    170707 H21  0.2+  0.6-    170714 C23  0.0   0.3-
    170703 807  0.1+  0.1-    170707 H21  0.0   0.6-    170714 J69  0.2-  0.7+
    170703 G40  0.1-  0.1+    170707 H21  0.1-  0.8-    170714 J69  0.2-  0.9+
    170703 G40  0.3+  0.1+    170707 K38  0.0   0.1-    170714 J69  0.5-  1.1+
    170703 Y00  0.3-  0.1+    170707 K38  0.0   0.2-    170715 204  0.1+  0.3-
    170703 Y00  0.5+  0.8-    170707 K38  0.0   0.1-    170715 204  0.2-  0.0
    170703 Y00  0.2-  0.1-    170707 203  0.2-  0.1-    170715 204  0.2-  0.1-
    170703 Y00  0.1-  0.4+    170707 K38  0.1-  0.3-    170715 T08  0.1-  0.2-
    170703 Y00  0.4+  0.3+    170707 K38  0.1-  0.3-    170715 T08  0.1+  0.4-
    170703 W25  0.0   0.2+    170707 107  0.1-  0.1-    170715 T08  0.0   0.3+
    170703 W25  0.0   0.2+    170707 107  0.0   0.2+    170715 T08  0.6+  0.0
    170703 H21  0.2+  0.2-    170707 107  0.2+  0.2+    170716 I15  0.0   0.1+
    170703 H21  0.1+  0.1-    170707 107  0.3+  0.5-    170716 I15  0.2-  0.4+
    170703 H21  0.0   0.2-    170707 203  0.3-  0.1-    170716 I15  0.0   0.0
    170703 H21  0.0   0.3-    170708 T05  0.1-  0.4-    170716 L04  0.2+  0.1-
    170703 H21  0.1+  0.2-    170708 T05  0.1-  0.1+    170716 L04  0.2-  0.1-
    170703 H21  0.0   0.2-    170708 T05  0.3-  0.0     170716 L04  0.0   0.2+
    170703 H21  0.2-  0.2-    170708 T05  0.3+  0.6-    170716 B66  0.1+  1.4+
    170703 H21  0.2-  0.2-    170708 104  0.2+  0.2-    170716 B66  0.1+  1.3+
    170703 H21  0.1+  0.2-    170708 104  0.2+  0.0     170717 C23  0.2+  0.1-
    170703 H21  0.1-  0.2-    170708 J95  0.1-  0.0     170717 C23  0.4-  0.3-
    170703 H21  0.1+  0.2-    170708 J95  0.1+  0.5-    170717 C23  0.3-  0.2+
    170703 H21  0.2+  0.0     170708 J95  0.4+  0.0     170910 695  0.2-  0.7+
    170703 H21  0.2+  0.2-    170708 C23  0.2-  0.6+    170910 695  0.1-  0.6+
    170703 H21  0.1+  0.1-    170708 J95  0.1+  0.0     171026 H21  1.4-  1.4-
    170703 H21  0.0   0.1-    170708 C23  0.3+  0.2-    171026 H21  1.3-  1.5-
    170703 H36  0.2-  0.4+    170708 C23  0.1-  0.4+    171027 291  0.2-  0.3+
    170703 H36  0.1-  0.1+    170708 C23  0.3-  0.0     171027 291  0.0   0.1+
    170703 H36  0.1-  0.3-    170708 C23  0.4-  0.2+    171027 291  0.2+  0.3+
    170703 H36  0.0   0.4-    170708 C23  0.3-  0.8-    171028 V06  0.2+  0.1+
    170703 T05  0.0   0.3-    170708 C23  0.1-  0.4-    171028 V06  0.2+  0.3+
    170703 T05  0.3+  0.1-    170708 C23  0.2+  0.3+    171028 V06  0.2+  0.1+
    170703 T05  0.2+  0.2+    170708 C23  0.2-  0.3+    171028 V06  0.1+  0.0
    170703 T05  0.0   0.0     170708 C23  0.4+  0.1+    171029 G96  0.2-  0.1-
    170703 T05  0.2+  0.2-    170708 C23  0.7-  0.6+    171029 G96  0.1-  0.0
    170703 K65  0.0   0.1+    170708 C23  0.1-  0.1-    171029 G96  0.3-  0.2+
    170703 K65  0.1-  0.1+    170708 104  0.2+  0.1+    171029 695  0.0   0.4+
    170703 K38  0.0   0.2-    170708 C23  0.1-  0.7+    171029 695  0.0   0.2+
    170703 K65  0.0   0.0     170708 C23  0.1+  0.5+    171029 695  0.0   0.4+
    170703 K38  0.2+  0.1+    170708 C23  0.2-  0.1+    171029 F51  0.1+  0.1+
    170703 B74  0.1+  0.1+    170708 G34  0.2+  0.1-    171029 F51  0.1+  0.2+
    170703 B74  0.1-  0.1+    170708 C23  0.1-  0.5+    171029 F51  0.1+  0.1+
    170703 J95  0.1-  0.1-    170708 G34  0.0   0.1+    171213 I52  0.0   0.4+
    170703 K38  0.1+  0.0     170708 G34  0.2+  0.2-    171213 I52  0.1+  0.3+
    170703 J95  0.1+  0.1-    170708 C23  0.4-  0.8+    171213 I52  0.0   0.0
    170703 B74  0.2-  0.1+    170708 G34  0.3+  0.1-    171213 I52  0.0   0.3-
    170703 J95  0.1-  0.2-    170708 G34  0.2+  0.1-    200303 807  0.1-  0.0
    170703 K38  0.0   0.2-    170708 G34  0.2+  0.3-    200303 807  0.0   0.3-
    170703 104  0.2-  0.2-    170708 Z80  0.1+  0.0     200303 807  0.1-  0.4-
    170703 104  0.0   0.1-    170708 Z80  0.1+  0.7-    200315 807  0.2-  0.0
    170703 104  0.0   0.2-    170708 Z80  0.1-  0.0     200315 807  0.1-  0.1+
    170703 J69  0.0   0.4+    170708 Z80  0.5-  0.0     200315 807  0.1-  0.5-
    170703 J69  0.1-  0.4+    170708 Z80  0.1-  0.2+
    
